Location: Cave
(41.8160°N, 12.9350°E)
Time: 14:22:32
(UTC+02:00)

ISS - Pass Details

Date: 12 July 2019
Orbit: 409 x 418 km, 51.6° (Epoch: 23 July)

Event Time Altitude Azimuth Distance (km) Brightness Sun altitude
Exits shadow 03:11:46 - 299° (WNW) 1,949 -0.4 -20.6°
Reaches altitude 10° 03:13:21 10° 316° (NW) 1,481 -0.8 -20.4°
Drops below altitude 10° 03:17:31 10° 34° (NNE) 1,480 0.2 -20.0°
Enters shadow 04:17:00 -65° 269° (W) 12,049 3.6 -13.4°
Maximum altitude 04:53:04 20° 15° (NNE) 1,034 -1.0 -8.5°
Sets 04:58:02 0° 83° (E) 2,334 1.1 -7.8°
